N1ACB Weather Reports


time (UTC)temp
C
wind
direction
speed
KPH
gust
KPH
rain 1hr
cm
rain 24hr
cm
rain mn
cm
humidity
%
barometer
mb
20260504050503 13 13 0.0 0.0 0.00 0.05 0.00 60 1014.6
20260504050003 13 13 0.0 0.0 0.00 0.05 0.00 60 1014.6
20260504045503 13 14 0.0 0.0 0.00 0.05 0.00 57 1014.6
20260504045003 13 16 0.0 0.0 0.00 0.05 0.00 57 1014.6
20260504044504 13 13 0.0 0.0 0.00 0.05 0.00 56 1014.6
20260504044003 13 16 0.0 0.0 0.00 0.05 0.00 55 1014.7
20260504043504 13 15 0.0 0.0 0.00 0.05 0.00 54 1014.6
20260504043004 14 16 0.0 0.0 0.00 0.05 0.00 54 1014.6
20260504042004 15 17 0.0 0.0 0.00 0.05 0.00 54 1014.7
20260504041003 15 18 0.0 3.2 0.00 0.05 0.00 51 1014.7
20260504040503 15 23 0.0 4.8 0.00 0.05 0.00 51 1014.8
20260504040004 14 17 0.0 1.6 0.00 0.05 0.00 51 1014.8
20260504035504 14 16 0.0 0.0 0.00 0.05 0.05 54 1014.8
20260504035004 14 17 0.0 1.6 0.00 0.05 0.05 52 1014.8
20260504034504 14 15 1.6 3.2 0.00 0.05 0.05 52 1014.7
20260504033004 13 18 0.0 1.6 0.00 0.05 0.05 55 1014.8
20260504032504 13 22 0.0 3.2 0.00 0.05 0.05 55 1014.9
20260504032004 13 1 0.0 0.0 0.00 0.05 0.05 52 1014.8
20260504031003 13 2 0.0 3.2 0.00 0.05 0.05 53 1014.7
20260504030004 13 1 0.0 0.0 0.00 0.05 0.05 52 1014.8
20260504025503 14 1 0.0 0.0 0.00 0.05 0.05 52 1014.8
20260504025005 14 1 0.0 0.0 0.00 0.05 0.05 53 1014.8
20260504024003 14 1 0.0 0.0 0.00 0.05 0.05 52 1014.8
20260504023505 14 1 0.0 0.0 0.00 0.05 0.05 52 1014.7
20260504023004 14 1 0.0 0.0 0.00 0.05 0.05 51 1014.7
20260504022004 15 1 0.0 0.0 0.00 0.05 0.05 50 1014.6
20260504021503 15 1 0.0 0.0 0.00 0.05 0.05 50 1014.6
20260504021004 15 1 0.0 0.0 0.00 0.05 0.05 50 1014.5
20260504020004 15 1 0.0 0.0 0.00 0.05 0.05 50 1014.3
20260504015504 15 1 0.0 0.0 0.00 0.05 0.05 49 1014.3
20260504015003 15 1 0.0 0.0 0.00 0.05 0.05 49 1014.3
20260504014504 15 1 0.0 0.0 0.00 0.05 0.05 49 1014.2
20260504014003 15 1 0.0 0.0 0.00 0.05 0.05 50 1014.1
20260504013504 15 1 0.0 0.0 0.00 0.05 0.05 50 1014.1
20260504012504 15 1 0.0 0.0 0.00 0.05 0.05 50 1014.0
20260504012004 15 1 0.0 0.0 0.00 0.05 0.05 50 1014.0
20260504011504 16 1 0.0 0.0 0.00 0.05 0.05 49 1013.9
20260504011004 16 1 0.0 0.0 0.00 0.05 0.05 49 1013.9
20260504010503 16 1 0.0 0.0 0.00 0.05 0.05 48 1013.9
20260504010004 16 1 0.0 0.0 0.00 0.05 0.05 48 1014.0
20260504005004 16 3 0.0 0.0 0.00 0.05 0.05 47 1013.9
20260504004004 17 3 0.0 0.0 0.00 0.05 0.05 46 1013.7
20260504002504 18 7 0.0 0.0 0.00 0.05 0.05 42 1013.6
20260504002004 18 21 0.0 0.0 0.00 0.05 0.05 41 1013.5
20260504001504 18 21 0.0 0.0 0.00 0.05 0.05 41 1013.5
20260504000503 19 19 0.0 0.0 0.00 0.05 0.05 39 1013.4
20260504000004 20 21 0.0 0.0 0.00 0.05 0.05 37 1013.4
20260503235504 20 18 0.0 0.0 0.00 0.05 0.05 37 1013.4
20260503235004 20 16 0.0 0.0 0.00 0.05 0.05 36 1013.3
20260503234003 20 17 0.0 1.6 0.00 0.05 0.05 35 1013.3
20260503233504 21 267 0.0 0.0 0.00 0.05 0.05 36 1013.3
20260503233003 21 265 0.0 0.0 0.00 0.05 0.05 33 1013.4
20260503232504 21 240 0.0 0.0 0.00 0.08 0.05 35 1013.3
20260503232003 21 178 0.0 0.0 0.00 0.08 0.05 34 1013.4
20260503231503 21 191 0.0 1.6 0.00 0.08 0.05 34 1013.4
20260503231003 21 207 1.6 3.2 0.00 0.10 0.05 31 1013.5
20260503230504 21 329 0.0 0.0 0.00 0.10 0.05 32 1013.5
20260503230004 22 221 0.0 4.8 0.00 0.13 0.05 31 1013.5
20260503225504 22 202 0.0 4.8 0.00 0.13 0.05 30 1013.6
20260503225004 22 221 0.0 0.0 0.00 0.15 0.05 28 1013.6
20260503224504 22 281 0.0 1.6 0.00 0.15 0.05 30 1013.6
20260503224003 22 36 0.0 1.6 0.00 0.15 0.05 32 1013.6
20260503223504 21 345 0.0 3.2 0.00 0.15 0.05 32 1013.6
20260503223003 21 177 0.0 9.7 0.00 0.15 0.05 28 1013.7
20260503222504 22 161 1.6 8.0 0.00 0.15 0.05 29 1013.6
20260503222003 22 169 0.0 4.8 0.00 0.15 0.05 31 1013.7
20260503221504 22 195 0.0 1.6 0.00 0.15 0.05 30 1013.7
20260503221003 22 286 0.0 0.0 0.00 0.15 0.05 29 1013.7
20260503220503 22 39 0.0 0.0 0.00 0.15 0.05 33 1013.8
20260503220004 22 14 0.0 0.0 0.00 0.15 0.05 31 1013.8
20260503215504 21 147 0.0 1.6 0.00 0.15 0.05 29 1013.9
20260503215004 21 103 1.6 11.3 0.00 0.15 0.05 32 1013.8
20260503214504 21 195 0.0 9.7 0.00 0.15 0.05 30 1013.9
20260503213503 21 209 1.6 11.3 0.00 0.15 0.05 33 1013.9
20260503213004 21 194 0.0 3.2 0.00 0.15 0.05 31 1014.0
20260503212504 21 186 3.2 9.7 0.00 0.15 0.05 32 1014.1
20260503212004 21 182 4.8 11.3 0.00 0.15 0.05 29 1014.1
20260503211003 22 182 3.2 9.7 0.00 0.15 0.05 29 1014.2
20260503210503 22 165 0.0 4.8 0.00 0.15 0.05 35 1014.2
20260503210005 21 198 0.0 4.8 0.00 0.15 0.05 36 1014.2
20260503205504 21 211 1.6 8.0 0.00 0.15 0.05 34 1014.4
20260503204004 21 214 6.4 12.9 0.00 0.15 0.05 30 1014.6
20260503203504 21 176 1.6 4.8 0.00 0.15 0.05 33 1014.7
20260503203004 20 240 0.0 8.0 0.00 0.15 0.05 35 1014.7
20260503202504 21 161 3.2 11.3 0.00 0.15 0.05 33 1014.8
20260503202003 21 160 0.0 1.6 0.00 0.15 0.05 36 1015.0
20260503201504 20 205 0.0 9.7 0.00 0.15 0.05 40 1015.1
20260503201003 20 200 1.6 8.0 0.00 0.15 0.05 40 1015.2
20260503200504 20 219 1.6 9.7 0.00 0.15 0.05 38 1015.3
20260503200003 20 189 0.0 0.0 0.00 0.15 0.05 39 1015.5
20260503195504 19 165 0.0 9.7 0.00 0.15 0.05 40 1015.6
20260503194004 19 288 1.6 9.7 0.00 0.15 0.05 42 1015.9
20260503193004 19 239 4.8 16.1 0.00 0.15 0.05 36 1016.1
20260503192504 19 205 3.2 11.3 0.00 0.15 0.05 39 1016.2
20260503192004 19 218 3.2 11.3 0.00 0.15 0.05 41 1016.3
20260503191504 19 157 3.2 11.3 0.00 0.15 0.05 40 1016.5
20260503190504 18 194 6.4 12.9 0.00 0.15 0.05 42 1016.6
20260503190004 18 117 1.6 14.5 0.00 0.15 0.05 42 1016.6
20260503185004 18 94 1.6 4.8 0.00 0.15 0.05 42 1016.8
20260503184503 18 189 1.6 11.3 0.00 0.15 0.05 40 1016.8
20260503183503 18 236 0.0 9.7 0.00 0.15 0.05 43 1017.0
20260503183004 17 195 8.0 12.9 0.00 0.15 0.05 39 1017.0
20260503182503 17 190 3.2 11.3 0.00 0.15 0.05 41 1017.0
20260503182005 17 232 8.0 16.1 0.00 0.15 0.05 40 1017.1
20260503181504 17 224 4.8 9.7 0.00 0.15 0.05 39 1017.1
20260503181004 17 189 4.8 9.7 0.00 0.15 0.05 39 1017.1
20260503180504 17 197 3.2 9.7 0.00 0.15 0.05 41 1017.1
20260503180003 17 239 1.6 9.7 0.00 0.15 0.05 42 1017.1
20260503175004 17 151 0.0 9.7 0.00 0.15 0.05 37 1017.1
20260503174503 17 185 0.0 3.2 0.00 0.15 0.05 42 1017.2
20260503174004 17 225 4.8 11.3 0.00 0.15 0.05 38 1017.4
20260503173504 17 196 3.2 11.3 0.00 0.15 0.05 41 1017.3
20260503173003 17 247 6.4 12.9 0.00 0.15 0.05 41 1017.3
20260503172504 17 217 1.6 11.3 0.00 0.15 0.05 43 1017.3
20260503172004 17 156 3.2 16.1 0.00 0.15 0.05 43 1017.4
20260503171504 17 302 0.0 8.0 0.00 0.15 0.05 48 1017.4
20260503171003 16 204 3.2 11.3 0.00 0.15 0.05 45 1017.6
20260503170503 16 217 3.2 11.3 0.00 0.15 0.05 44 1017.8
20260503150503 13 172 0.0 0.0 0.03 0.15 0.05 67 1018.8
20260503131003 9 35 0.0 0.0 0.00 0.13 0.03 100 1018.3
20260503090503 7 253 0.0 0.0 0.00 0.13 0.03 100 1015.8
20260503081503 7 254 0.0 0.0 0.00 0.13 0.03 99 1015.1
20260503081004 7 254 0.0 0.0 0.00 0.13 0.03 99 1015.1
20260503080503 7 254 0.0 0.0 0.00 0.13 0.03 99 1015.0
20260503072004 7 254 0.0 0.0 0.00 0.13 0.03 99 1014.8
20260503071004 7 254 0.0 0.0 0.00 0.13 0.03 99 1014.7
20260503070504 7 254 0.0 0.0 0.00 0.13 0.03 99 1014.6